Regional Weather Roundup
Issued by NWS

Home | Current Version | Previous Version | Text Only | Print | Product List | Glossary Off
Versions: 1 2 3 4 5 6 7 8 9 10 11 12 13 14 15 16 17 18 19 20 21 22 23 24 25 26 27 28 29 30 31 32 33 34 35 36 37 38 39 40 41 42 43 44 45 46 47 48 49 50

000
ASUS43 KOAX 241402
RWRNE

WEATHER ROUNDUP FOR NEBRASKA
NATIONAL WEATHER SERVICE OMAHA NE
800 AM CST FRI FEB 24 2017

NOTES: SATELLITE DATA IS BEING USED TO AUGMENT CLOUD COVER ABOVE
       12000 FEET.
       "FAIR" INDICATES FEW OR NO CLOUDS BELOW 12,000 FEET WITH NO
       SIGNIFICANT WEATHER AND/OR OBSTRUCTIONS TO VISIBILITY.

  * THESE STATIONS DO NOT REPORT WEATHER SUCH AS RAIN...SNOW OR FOG.

NEZ001>004-019>022-054>056-241500-
NEBRASKA PANHANDLE

CITY           SKY/WX    TMP DP  RH WIND       PRES   REMARKS
SCOTTSBLUFF    CLOUDY    20  14  77 N5        29.96R WCI  13
ALLIANCE       CLOUDY    19  16  88 N13       29.94R FOG     WCI   6
CHADRON        LGT SNOW  22  19  89 NE7       30.01R FOG     WCI  13
KIMBALL        LGT SNOW  18  17  98 N8        29.90S WCI   7
SIDNEY         LGT SNOW  19  16  88 N10       29.92R FOG     WCI   7
$$

NEZ057>060-069>072-079>082-241500-
SOUTHWEST NEBRASKA

CITY           SKY/WX    TMP DP  RH WIND       PRES   REMARKS
NORTH PLATTE   LGT SNOW  24  18  77 N18G26    29.92R WCI  10
IMPERIAL       FLURRIES  22  18  85 N18       29.92R WCI   7
LEXINGTON      LGT SNOW  24  20  85 N24G32    29.89R WCI   8
MCCOOK         LGT SNOW  24  21  88 N25       29.89R VSB 3/4 WCI   8
OGALLALA       CLOUDY    25  19  80 N18G25    29.93R WCI  11
$$

NEZ005>010-023>029-035>040-094-241500-
NORTH CENTRAL NEBRASKA

CITY           SKY/WX    TMP DP  RH WIND       PRES   REMARKS
VALENTINE      CLOUDY    18  11  74 N15G29    30.02R WCI   4
AINSWORTH      CLOUDY    18  16  90 N21G30    29.99R WCI   2
BROKEN BOW     FOG       21  18  88 N29G37    29.89R VSB 3/4 WCI   3
O`NEILL        CLOUDY    20  17  88 N24       29.95R WCI   3
ORD            HAZE      20  14  77 N29G37    29.89R VSB 3/4 WCI   1
THEDFORD       LGT SNOW  22  20  92 N18       29.96R WCI   7
$$

NEZ041-046>049-061>064-073>077-083>087-241500-
SOUTH CENTRAL NEBRASKA

CITY           SKY/WX    TMP DP  RH WIND       PRES   REMARKS
GRAND ISLAND   FOG       21  19  92 N31G39    29.83R VSB 1   WCI   2
AURORA         LGT SNOW  23  21  92 N22G28    29.81R WCI   8
HASTINGS       LGT SNOW  22  19  89 N29G38    29.82R VSB 3/4 WCI   4
HEBRON         CLOUDY    27  25  92 N16G23    29.79R FOG     WCI  15
HOLDREGE       CLOUDY    23  20  91 N17G29    29.84R WCI   9
KEARNEY *      CLOUDY    21  18  86 N23G29    29.85R VSB 3/4 WCI   5
YORK           LGT SNOW  25  23  93 N22G32    29.78R VSB 3/4 WCI  10
$$

NEZ011>018-030>034-042>045-241500-
NORTHEAST NEBRASKA

CITY           SKY/WX    TMP DP  RH WIND       PRES   REMARKS
NORFOLK        FOG       22  18  85 N21G33    29.84R VSB 1/2 WCI   6
ALBION         LGT SNOW  22  17  81 N24G31    29.85R VSB 1   WCI   6
BLAIR          CLOUDY    26  24  90 N25G36    29.71R FOG     WCI  11
FREMONT        LGT SNOW  26  25  95 N15G21    29.77R WCI  14
TEKAMAH        FOG       25  23  92 N32G40    29.78R VSB 1/4 WCI   8
WAYNE            N/A     24  22  94 N15G29    29.84R WCI  11
$$

NEZ050>053-065>068-078-088>093-241500-
SOUTHEAST NEBRASKA

CITY           SKY/WX    TMP DP  RH WIND       PRES   REMARKS
LINCOLN        FRZ RAIN  27  24  89 N32G41    29.76R FOG     WCI  10
OMAHA EPPLEY   FRZ RAIN  28  24  85 N23G30    29.72R FOG     WCI  14
BEATRICE       CLOUDY    30  28  94 N23G31    29.74R FOG     WCI  16
FALLS CITY     CLOUDY    33  31  92 N14G23    29.66R WCI  23
NEBRASKA CITY  CLOUDY    31  29  92 N18       29.69R WCI  20
PLATTSMOUTH    MIX PCPN  30  26  86 N14G22    29.70R WCI  19
$$

NEZ044-045-051>053-067-241500-
OMAHA AREA

CITY           SKY/WX    TMP DP  RH WIND       PRES   REMARKS
OMAHA EPPLEY   FRZ RAIN  28  24  85 N23G30    29.72R FOG     WCI  14
BLAIR          CLOUDY    26  24  90 N25G36    29.71R FOG     WCI  11
FREMONT        LGT SNOW  26  25  95 N15G21    29.77R WCI  14
MILLARD        MIX PCPN  30  26  88 N10G23    29.74R WCI  21
OFFUTT AFB     FRZ RAIN  29  26  88 N12G24    29.72R FOG     WCI  19
PLATTSMOUTH    MIX PCPN  30  26  86 N14G22    29.70R WCI  19
WAHOO          LGT SNOW  26  24  91 MISG      29.76R VSB 3/4
$$



USA.gov is the U.S. government's official web portal to all federal, state and local government web resources and services.